MOOI WEER BOXTEL

Weerstation in Boxtel

Actuele weerinformatie en voorspellingen


Onweer radar Meer informatie blitzortung!


Regen radar Meer informatie rain snow radar


Meer informatie

Template documentation
and downloads

Weblog Hans on Experience

Profiel Hans Mestrum



Het weer levert geen direct gevaar op.    Er zijn geen waarschuwingen afgegeven.

Weather Underground Historische gegevens

Dagelijkse Samenvatting januari 16, 2019 Eenheden:  Metrisch    Engels   Beide
« Vorige Dag
Volgende Dag »
Dagelijkse Wekelijkse Maandelijkse Jaarlijkse Aangepaste
  Huidig: Hoog: Laag: Gemiddeld:
Temperatuur: -14.3 °C -17.8 °C -14.3 °C -14.2 °C
Dauwpunt: -15.6 °C -17.8 °C -15.8 °C -15.1 °C
Vochtigheid: 85 % Humidity % 83 % 88 %
Wind snelheid: 2.9 km/h 0 km/h 0 km/h 6 km/h
Windvlaag: 12.9 km/h 0 km/h - -
Wind:SSE - - South
Luchtdruk: 34164.7 hPa 0 hPa 34164.7 hPa -
Neerslag: 0 mm      
Historical Graphs
 
 
Tabel voor januari 16, 2019
Tijd Temperatuur Dauwpunt Luchtdruk Wind Wind snelheid Windvlaag Vochtigheid Regenval per uur
-17.8 °C -17.8 °C 0 hPa Calm     Humidity % 0 mm
00:03 -13.9 °C -14.7 °C 34361.1 hPa South 2.9 km/h 12.9 km/h 90 % 0 mm
00:08 -13.9 °C -14.7 °C 34361.1 hPa Calm   7.7 km/h 90 % 0 mm
00:13 -13.8 °C -14.7 °C 34361.1 hPa SSW 14 km/h 12.9 km/h 90 % 0 mm
00:18 -13.8 °C -14.7 °C 34361.1 hPa East 2.9 km/h 10.3 km/h 90 % 0 mm
00:24 -13.8 °C -14.7 °C 34361.1 hPa SSW 5.1 km/h 10.3 km/h 90 % 0 mm
00:29 -13.8 °C -14.7 °C 34361.1 hPa SE 5.1 km/h 12.9 km/h 90 % 0 mm
00:34 -13.8 °C -14.7 °C 34347.6 hPa SSW 5.1 km/h 12.9 km/h 90 % 0 mm
00:39 -13.8 °C -14.7 °C 34347.6 hPa SW 19.2 km/h 23.3 km/h 90 % 0 mm
00:44 -13.8 °C -14.7 °C 34347.6 hPa SE 8 km/h 10.3 km/h 90 % 0 mm
00:49 -13.8 °C -14.6 °C 34347.6 hPa NNW 8 km/h 10.3 km/h 91 % 0 mm
00:54 -13.8 °C -14.6 °C 34347.6 hPa SE 8 km/h 12.9 km/h 91 % 0 mm
00:59 -13.8 °C -14.6 °C 34347.6 hPa Calm   7.7 km/h 91 % 0 mm
01:04 -13.8 °C -14.6 °C 34347.6 hPa SW 22 km/h 23.3 km/h 91 % 0 mm
01:09 -13.8 °C -14.6 °C 34347.6 hPa SE 5.1 km/h 12.9 km/h 91 % 0 mm
01:14 -13.8 °C -14.6 °C 34347.6 hPa Calm   10.3 km/h 91 % 0 mm
01:19 -13.8 °C -14.6 °C 34337.4 hPa West 2.9 km/h 12.9 km/h 91 % 0 mm
01:24 -13.8 °C -14.6 °C 34337.4 hPa SW 8 km/h 10.3 km/h 91 % 0 mm
01:29 -13.8 °C -14.6 °C 34337.4 hPa SSE 11.1 km/h 15.6 km/h 91 % 0 mm
01:34 -13.8 °C -14.6 °C 34337.4 hPa ENE 5.1 km/h 10.3 km/h 91 % 0 mm
01:39 -13.8 °C -14.6 °C 34337.4 hPa WNW 2.9 km/h 10.3 km/h 91 % 0 mm
01:44 -13.8 °C -14.6 °C 34327.3 hPa South 8 km/h 12.9 km/h 91 % 0 mm
01:49 -13.8 °C -14.6 °C 34327.3 hPa SSE 2.9 km/h 10.3 km/h 91 % 0 mm
01:54 -13.9 °C -14.7 °C 34327.3 hPa SSE 2.9 km/h 5.1 km/h 91 % 0 mm
01:59 -13.9 °C -14.7 °C 34327.3 hPa Calm   15.6 km/h 91 % 0 mm
02:04 -13.9 °C -14.7 °C 34327.3 hPa SSW 5.1 km/h 25.9 km/h 91 % 0 mm
02:09 -13.9 °C -14.7 °C 34327.3 hPa SW 8 km/h 18.2 km/h 91 % 0 mm
02:14 -13.9 °C -14.7 °C 34327.3 hPa SSE 8 km/h 10.3 km/h 91 % 0 mm
02:19 -13.9 °C -14.7 °C 34327.3 hPa South 5.1 km/h 23.3 km/h 91 % 0 mm
02:24 -13.9 °C -14.7 °C 34327.3 hPa Calm   15.6 km/h 91 % 0 mm
02:29 -13.9 °C -14.7 °C 34327.3 hPa SSW 11.1 km/h 12.9 km/h 91 % 0 mm
02:33 -13.9 °C -14.7 °C 34327.3 hPa SW 2.9 km/h 10.3 km/h 91 % 0 mm
02:38 -13.9 °C -14.6 °C 34327.3 hPa SSW 2.9 km/h 15.6 km/h 92 % 0 mm
02:44 -13.9 °C -14.6 °C 34327.3 hPa Calm   18.2 km/h 92 % 0 mm
02:49 -13.8 °C -14.6 °C 34327.3 hPa SE 5.1 km/h 23.3 km/h 91 % 0 mm
02:54 -13.9 °C -14.6 °C 34327.3 hPa WSW 2.9 km/h 18.2 km/h 92 % 0 mm
02:59 -13.9 °C -14.6 °C 34327.3 hPa West 5.1 km/h 23.3 km/h 92 % 0 mm
03:04 -13.9 °C -14.6 °C 34327.3 hPa South 5.1 km/h 12.9 km/h 92 % 0 mm
03:09 -13.9 °C -14.6 °C 34327.3 hPa South 8 km/h 10.3 km/h 92 % 0 mm
03:14 -14 °C -14.7 °C 34327.3 hPa SSE 8 km/h 18.2 km/h 92 % 0 mm
03:19 -14 °C -14.6 °C 34313.7 hPa South 5.1 km/h 25.9 km/h 93 % 0 mm
03:24 -14.1 °C -14.7 °C 34327.3 hPa Calm   15.6 km/h 93 % 0 mm
03:29 -14.1 °C -14.7 °C 34313.7 hPa Calm   18.2 km/h 93 % 0 mm
03:34 -14.1 °C -14.7 °C 34313.7 hPa Calm   12.9 km/h 93 % 0 mm
03:39 -14.1 °C -14.7 °C 34313.7 hPa WSW 5.1 km/h 12.9 km/h 93 % 0 mm
03:44 -14.2 °C -14.7 °C 34313.7 hPa Calm   5.1 km/h 94 % 0 mm
03:49 -14.2 °C -14.7 °C 34313.7 hPa Calm   7.7 km/h 94 % 0 mm
03:54 -14.2 °C -14.7 °C 34313.7 hPa Calm   12.9 km/h 94 % 0 mm
03:58 -14.2 °C -14.7 °C 34313.7 hPa WSW 2.9 km/h 15.6 km/h 94 % 0 mm
04:04 -14.2 °C -14.7 °C 34313.7 hPa East 5.1 km/h 23.3 km/h 94 % 0 mm
04:09 -14.3 °C -14.8 °C 34303.6 hPa SSE 5.1 km/h 12.9 km/h 94 % 0 mm
04:14 -14.3 °C -14.8 °C 34303.6 hPa South 8 km/h 18.2 km/h 94 % 0 mm
04:19 -14.3 °C -14.8 °C 34293.4 hPa SSW 5.1 km/h 18.2 km/h 94 % 0 mm
04:24 -14.3 °C -14.8 °C 34293.4 hPa SSW 8 km/h 7.7 km/h 94 % 0 mm
04:29 -14.3 °C -14.8 °C 34293.4 hPa ESE 2.9 km/h 12.9 km/h 94 % 0 mm
04:34 -14.3 °C -14.8 °C 34293.4 hPa East 2.9 km/h 5.1 km/h 94 % 0 mm
04:39 -14.3 °C -14.8 °C 34293.4 hPa SW 5.1 km/h 15.6 km/h 94 % 0 mm
04:44 -14.3 °C -14.8 °C 34293.4 hPa SSE 2.9 km/h 5.1 km/h 94 % 0 mm
04:49 -14.3 °C -14.8 °C 34293.4 hPa SSW 2.9 km/h 12.9 km/h 94 % 0 mm
04:54 -14.3 °C -14.8 °C 34293.4 hPa SW 11.1 km/h 12.9 km/h 93 % 0 mm
04:59 -14.3 °C -14.8 °C 34279.9 hPa SSW 14 km/h 15.6 km/h 93 % 0 mm
05:04 -14.3 °C -14.8 °C 34279.9 hPa SSW 14 km/h 15.6 km/h 93 % 0 mm
05:09 -14.3 °C -14.8 °C 34279.9 hPa Calm   12.9 km/h 93 % 0 mm
05:14 -14.3 °C -14.8 °C 34279.9 hPa South 2.9 km/h 18.2 km/h 93 % 0 mm
05:19 -14.3 °C -14.9 °C 34269.7 hPa SW 19.2 km/h 25.9 km/h 92 % 0 mm
05:24 -14.3 °C -14.9 °C 34269.7 hPa SSE 5.1 km/h 10.3 km/h 92 % 0 mm
05:29 -14.2 °C -14.9 °C 34256.2 hPa SW 5.1 km/h 12.9 km/h 92 % 0 mm
05:34 -14.2 °C -14.9 °C 34256.2 hPa SE 11.1 km/h 15.6 km/h 92 % 0 mm
05:39 -14.2 °C -14.9 °C 34256.2 hPa SSW 8 km/h 15.6 km/h 92 % 0 mm
05:44 -14.2 °C -15 °C 34256.2 hPa Calm   10.3 km/h 91 % 0 mm
05:49 -14.2 °C -15 °C 34256.2 hPa SSW 8 km/h 12.9 km/h 91 % 0 mm
05:54 -14.2 °C -15 °C 34256.2 hPa SSE 8 km/h 23.3 km/h 91 % 0 mm
05:59 -14.2 °C -15 °C 34256.2 hPa South 2.9 km/h 12.9 km/h 91 % 0 mm
06:04 -14.2 °C -15 °C 34256.2 hPa West 2.9 km/h 12.9 km/h 91 % 0 mm
06:09 -14.2 °C -15 °C 34256.2 hPa Calm   15.6 km/h 91 % 0 mm
06:14 -14.2 °C -15.1 °C 34256.2 hPa South 2.9 km/h 5.1 km/h 90 % 0 mm
06:19 -14.2 °C -15.1 °C 34256.2 hPa SSW 2.9 km/h 7.7 km/h 90 % 0 mm
06:24 -14.2 °C -15.1 °C 34256.2 hPa SW 2.9 km/h 15.6 km/h 90 % 0 mm
06:29 -14.2 °C -15.1 °C 34256.2 hPa South 5.1 km/h 10.3 km/h 90 % 0 mm
06:34 -14.2 °C -15.1 °C 34256.2 hPa SE 2.9 km/h 10.3 km/h 90 % 0 mm
06:39 -14.2 °C -15.1 °C 34256.2 hPa Calm   5.1 km/h 90 % 0 mm
06:43 -14.2 °C -15.1 °C 34256.2 hPa SSW 5.1 km/h 10.3 km/h 90 % 0 mm
06:49 -14.2 °C -15.1 °C 34246 hPa SW 8 km/h 12.9 km/h 90 % 0 mm
06:54 -14.2 °C -15.2 °C 34246 hPa SSW 5.1 km/h 31.1 km/h 89 % 0 mm
06:59 -14.2 °C -15.2 °C 34246 hPa South 2.9 km/h 15.6 km/h 89 % 0 mm
07:04 -14.2 °C -15.2 °C 34246 hPa West 2.9 km/h 12.9 km/h 89 % 0 mm
07:09 -14.2 °C -15.2 °C 34246 hPa SSE 2.9 km/h 12.9 km/h 89 % 0 mm
07:14 -14.2 °C -15.2 °C 34246 hPa SSW 5.1 km/h 31.1 km/h 89 % 0 mm
07:19 -14.3 °C -15.2 °C 34235.8 hPa SSW 11.1 km/h 12.9 km/h 89 % 0 mm
07:24 -14.3 °C -15.2 °C 34235.8 hPa WSW 2.9 km/h 12.9 km/h 89 % 0 mm
07:29 -14.3 °C -15.2 °C 34235.8 hPa SSE 5.1 km/h 10.3 km/h 89 % 0 mm
07:34 -14.3 °C -15.2 °C 34235.8 hPa SSW 11.1 km/h 12.9 km/h 89 % 0 mm
07:39 -14.3 °C -15.2 °C 34235.8 hPa SW 2.9 km/h 7.7 km/h 89 % 0 mm
07:44 -14.3 °C -15.2 °C 34235.8 hPa South 5.1 km/h 18.2 km/h 89 % 0 mm
07:49 -14.3 °C -15.3 °C 34222.3 hPa WSW 8 km/h 12.9 km/h 88 % 0 mm
07:54 -14.3 °C -15.3 °C 34222.3 hPa SSE 5.1 km/h 7.7 km/h 88 % 0 mm
07:59 -14.3 °C -15.3 °C 34222.3 hPa SSW 5.1 km/h 12.9 km/h 88 % 0 mm
08:04 -14.3 °C -15.4 °C 34222.3 hPa NW 11.1 km/h 23.3 km/h 87 % 0 mm
08:09 -14.3 °C -15.4 °C 34222.3 hPa West 8 km/h 15.6 km/h 87 % 0 mm
08:14 -14.3 °C -15.4 °C 34235.8 hPa South 5.1 km/h 15.6 km/h 87 % 0 mm
08:19 -14.3 °C -15.5 °C 34222.3 hPa SSE 5.1 km/h 15.6 km/h 86 % 0 mm
08:24 -14.2 °C -15.4 °C 34222.3 hPa SSW 14 km/h 12.9 km/h 86 % 0 mm
08:29 -14.2 °C -15.4 °C 34222.3 hPa South 8 km/h 25.9 km/h 86 % 0 mm
08:34 -14.2 °C -15.4 °C 34222.3 hPa SSE 5.1 km/h 23.3 km/h 86 % 0 mm
08:39 -14.2 °C -15.4 °C 34222.3 hPa Calm   7.7 km/h 86 % 0 mm
08:44 -14.3 °C -15.5 °C 34222.3 hPa SE 2.9 km/h 12.9 km/h 86 % 0 mm
08:49 -14.3 °C -15.5 °C 34222.3 hPa SSE 5.1 km/h 12.9 km/h 86 % 0 mm
08:54 -14.3 °C -15.5 °C 34222.3 hPa SSE 11.1 km/h 12.9 km/h 86 % 0 mm
08:59 -14.3 °C -15.6 °C 34222.3 hPa West 2.9 km/h 15.6 km/h 85 % 0 mm
09:04 -14.3 °C -15.6 °C 34222.3 hPa Calm   12.9 km/h 85 % 0 mm
09:09 -14.3 °C -15.6 °C 34222.3 hPa Calm   12.9 km/h 85 % 0 mm
09:14 -14.3 °C -15.6 °C 34222.3 hPa SSE 2.9 km/h 10.3 km/h 85 % 0 mm
09:19 -14.3 °C -15.6 °C 34222.3 hPa SW 11.1 km/h 15.6 km/h 85 % 0 mm
09:24 -14.3 °C -15.7 °C 34222.3 hPa SSW 19.2 km/h 18.2 km/h 84 % 0 mm
09:29 -14.3 °C -15.7 °C 34222.3 hPa SW 11.1 km/h 15.6 km/h 84 % 0 mm
09:34 -14.3 °C -15.7 °C 34222.3 hPa SSE 2.9 km/h 18.2 km/h 84 % 0 mm
09:39 -14.3 °C -15.7 °C 34222.3 hPa SSE 14 km/h 18.2 km/h 84 % 0 mm
09:44 -14.3 °C -15.7 °C 34222.3 hPa SSW 2.9 km/h 10.3 km/h 84 % 0 mm
09:48 -14.3 °C -15.7 °C 34222.3 hPa SSE 8 km/h 18.2 km/h 84 % 0 mm
09:54 -14.3 °C -15.7 °C 34222.3 hPa SE 2.9 km/h 25.9 km/h 84 % 0 mm
09:59 -14.3 °C -15.8 °C 34212.1 hPa West 16.3 km/h 28.5 km/h 83 % 0 mm
10:04 -14.3 °C -15.8 °C 34212.1 hPa SE 5.1 km/h 28.5 km/h 83 % 0 mm
10:09 -14.3 °C -15.8 °C 34212.1 hPa SSW 11.1 km/h 25.9 km/h 83 % 0 mm
10:14 -14.3 °C -15.8 °C 34212.1 hPa NNE 2.9 km/h 15.6 km/h 83 % 0 mm
10:19 -14.3 °C -15.8 °C 34212.1 hPa South 16.3 km/h 23.3 km/h 83 % 0 mm
10:24 -14.3 °C -15.8 °C 34212.1 hPa SW 8 km/h 23.3 km/h 83 % 0 mm
10:29 -14.3 °C -15.7 °C 34212.1 hPa SSW 11.1 km/h 31.1 km/h 84 % 0 mm
10:34 -14.3 °C -15.7 °C 34212.1 hPa SSE 2.9 km/h 18.2 km/h 84 % 0 mm
10:39 -14.3 °C -15.7 °C 34212.1 hPa SE 5.1 km/h 25.9 km/h 84 % 0 mm
10:44 -14.3 °C -15.7 °C 34212.1 hPa NE 2.9 km/h 36.2 km/h 84 % 0 mm
10:49 -14.3 °C -15.7 °C 34212.1 hPa SSW 8 km/h 25.9 km/h 84 % 0 mm
10:54 -14.3 °C -15.7 °C 34212.1 hPa ESE 5.1 km/h 28.5 km/h 84 % 0 mm
10:59 -14.3 °C -15.7 °C 34198.6 hPa SW 5.1 km/h 18.2 km/h 84 % 0 mm
11:04 -14.3 °C -15.7 °C 34198.6 hPa SSE 22 km/h 28.5 km/h 84 % 0 mm
11:09 -14.3 °C -15.7 °C 34198.6 hPa SSW 2.9 km/h 15.6 km/h 84 % 0 mm
11:14 -14.3 °C -15.6 °C 34198.6 hPa South 5.1 km/h 25.9 km/h 85 % 0 mm
11:19 -14.3 °C -15.6 °C 34198.6 hPa SSW 11.1 km/h 18.2 km/h 85 % 0 mm
11:24 -14.3 °C -15.6 °C 34188.4 hPa SSE 2.9 km/h 10.3 km/h 85 % 0 mm
11:29 -14.3 °C -15.6 °C 34188.4 hPa West 11.1 km/h 10.3 km/h 85 % 0 mm
11:34 -14.3 °C -15.6 °C 34188.4 hPa Calm   12.9 km/h 85 % 0 mm
11:39 -14.3 °C -15.6 °C 34188.4 hPa SSW 14 km/h 18.2 km/h 85 % 0 mm
11:44 -14.3 °C -15.6 °C 34188.4 hPa Calm   7.7 km/h 85 % 0 mm
11:49 -14.3 °C -15.6 °C 34188.4 hPa SSW 5.1 km/h 28.5 km/h 85 % 0 mm
11:54 -14.3 °C -15.6 °C 34178.3 hPa South 11.1 km/h 15.6 km/h 85 % 0 mm
11:59 -14.3 °C -15.6 °C 34188.4 hPa SE 5.1 km/h 10.3 km/h 85 % 0 mm
12:04 -14.3 °C -15.6 °C 34178.3 hPa ESE 8 km/h 23.3 km/h 85 % 0 mm
12:09 -14.3 °C -15.6 °C 34178.3 hPa SSE 8 km/h 31.1 km/h 85 % 0 mm
12:14 -14.3 °C -15.6 °C 34164.7 hPa SSE 2.9 km/h 12.9 km/h 85 % 0 mm
Weerstation Boxtel
Gegevens verzameld door Weather Underground - 3.25 mb

Script ontwikkeld door  Jim McMurry - jmcmurry@mwt.net Aangepast voor de template door  Wim van der Kuil - Leuven-Template.eu

U vindt ons ook hier:

Het Weer Aktueel

UK Metoffice

European Weather Network

Weather Underground

Benelux Weer Netwerk

AWEKAS

Citizen Weather Observer Program (CWOP)

HAMweather, WeatherForYou, PWS Weather

Apparatuur in gebruik:

Weerstation
Davis Vue ISS

Weerprogramma
Meteobridge

Weercomputer
Asus WL -330N3G

Webleverancier
Weerhuisje.nl

Davis Vue ISS

Meteobridge

Asus WL -330N3G

Weerhuisje.nl